Location: Long Island Community Building
(39.9491°N, 99.5338°W)
Time: 05:13:57
(UTC+00:00)

Cosmos 1862 Rocket - Pass Details

Date: 06 December 2019
Orbit: 604 x 633 km, 82.5° (Epoch: 18 January)

Event Time Altitude Azimuth Distance (km) Brightness Sun altitude
Rises 23:42:23 0° 162° (SSE) 2,848 7.1 -5.9°
Reaches altitude 10° 23:44:45 10° 152° (SSE) 1,952 6.1 -6.3°
Maximum altitude 23:48:33 31° 90° (E) 1,084 4.3 -7.0°
Drops below altitude 10° 23:52:24 10° 29° (NNE) 1,979 5.7 -7.6°
Sets 23:54:49 0° 19° (NNE) 2,894 6.6 -8.1°
